Notices

What's New in latest Release from April 7th, 2021:

- Updated Glossary, including Speed of Maximum Gust, and Total Hourly Precipitation

- Updated national and regional climate services offices contacts and prices information

- Addition of station inventory lists for 1981-2010, 1971-2000, and 1961-1990 Normals.

If you haven't already, please take our survey and provide feedback about our website: https://eccc.sondage-survey.ca/f/LanguageSelection.aspx?s=442ca660-fcf1-47c0-95a9-59707d6fd709

Hourly Data Report for March 13, 2018

MIRAMICHI RCS
NEW BRUNSWICK

47°00'34.000" N
65°27'54.000" W
33.00 m
8100989
71744
ACQ

Download Data

Hourly Data (March 2018)
Hourly Data Report for March 13, 2018
TIME
LST
Temp Definition
°C
Dew Point Definition
°C
Rel Hum Definition
%
Precip. Amount Definition
mm

Wind Dir Definition
10's deg

Wind Spd Definition
km/h
Visibility Definition
km
Stn Press Definition
kPa
Hmdx Definition


Wind Chill Definition


Weather Definition


00:00 -3.6 -4.7 92 0.0 4 9   101.71   -7 LegendNANA
01:00 -4.3 -5.7 90 0.0 4 6   101.70   -7 LegendNANA
02:00 -5.3 -5.9 95 0.0 6 5   101.67   -8 LegendNANA
03:00 -2.8 -4.6 88 0.0 6 10   101.60   -7 LegendNANA
04:00 -2.5 -3.8 91 0.0 4 13   101.40   -7 LegendNANA
05:00 -1.9 -4.1 85 0.0 4 12   101.38   -6 LegendNANA
06:00 -1.5 -3.9 84 0.0 5 14   101.31   -6 LegendNANA
07:00 -1.2 -3.0 87 0.0 6 26   101.27   -8 LegendNANA
08:00 -1.2 -2.6 90 0.0 6 27   101.20   -8 LegendNANA
09:00 -1.2 -2.8 89 0.0 6 29   101.13   -8 LegendNANA
10:00 -1.4 -2.7 91 0.0 6 31   101.13   -8 LegendNANA
11:00 -1.1 -2.3 91 0.0 6 27   100.91   -8 LegendNANA
12:00 -0.6 -2.3 88 0.0 6 30   100.83   -7 LegendNANA
13:00 -0.1 -1.8 89 0.0 6 31   100.71   -7 LegendNANA
14:00 -0.1 -1.9 88 0.0 6 34   100.57   -7 LegendNANA
15:00 -0.2 -1.8 89 0.0 5 35   100.47   -7 LegendNANA
16:00 -0.2 -1.5 91 0.0 5 38   100.37   -7 LegendNANA
17:00 -0.2 -1.5 91 0.0 6 39   100.24   -8 LegendNANA
18:00 -0.1 -1.4 91 0.0 6 37   100.14   -7 LegendNANA
19:00 0.1 -1.8 87 0.0 6 39   100.03     LegendNANA
20:00 0.4 -1.7 86 0.0 6 40   99.91     LegendNANA
21:00 0.5 -1.7 85 0.0 6 46   99.86     LegendNANA
22:00 0.6 -1.8 84 0.0 6 47   99.79     LegendNANA
23:00 0.4 -1.7 86 0.0 6 46   99.68     LegendNANA

Notes on Data Quality.

Legend

  • E = Estimated
  • M = Missing
  • NA = Not Available*
  • [empty] = Indicates an unobserved value
Date modified: